TimeCST,TemperatureF,Dew PointF,Humidity,Sea Level PressureIn,VisibilityMPH,Wind Direction,Wind SpeedMPH,Gust SpeedMPH,PrecipitationIn,Events,Conditions,WindDirDegrees,DateUTC
12:53 AM,45.0,37.0,74,30.15,10.0,NW,4.6,-,N/A,,Clear,320,2013-03-06 06:53:00
1:53 AM,46.0,37.0,71,30.15,10.0,NNW,8.1,-,N/A,,Clear,330,2013-03-06 07:53:00
2:53 AM,46.9,35.1,63,30.14,10.0,NNW,12.7,-,N/A,,Clear,330,2013-03-06 08:53:00
3:53 AM,45.0,30.9,58,30.17,10.0,NNW,13.8,-,N/A,,Clear,330,2013-03-06 09:53:00
4:53 AM,44.1,28.0,53,30.19,10.0,NNW,12.7,-,N/A,,Clear,330,2013-03-06 10:53:00
5:53 AM,43.0,28.0,56,30.22,10.0,NNW,11.5,-,N/A,,Clear,330,2013-03-06 11:53:00
6:53 AM,43.0,26.1,51,30.24,10.0,NNW,15.0,23.0,N/A,,Clear,330,2013-03-06 12:53:00
7:53 AM,45.0,26.1,48,30.25,10.0,NW,17.3,-,N/A,,Clear,320,2013-03-06 13:53:00
8:53 AM,48.0,24.1,39,30.26,10.0,NW,19.6,-,N/A,,Clear,320,2013-03-06 14:53:00
9:53 AM,50.0,23.0,35,30.25,10.0,North,15.0,25.3,N/A,,Clear,350,2013-03-06 15:53:00
10:53 AM,54.0,23.0,30,30.24,10.0,NNW,15.0,23.0,N/A,,Clear,330,2013-03-06 16:53:00
11:53 AM,57.0,21.9,26,30.22,10.0,WNW,15.0,24.2,N/A,,Clear,300,2013-03-06 17:53:00
12:53 PM,59.0,21.9,24,30.19,10.0,NW,20.7,26.5,N/A,,Clear,320,2013-03-06 18:53:00
1:53 PM,59.0,21.9,24,30.17,10.0,NW,13.8,26.5,N/A,,Clear,320,2013-03-06 19:53:00
2:53 PM,60.1,25.0,26,30.17,10.0,NW,17.3,21.9,N/A,,Clear,320,2013-03-06 20:53:00
3:53 PM,57.9,25.0,28,30.17,10.0,NNW,17.3,24.2,N/A,,Clear,340,2013-03-06 21:53:00
4:53 PM,57.0,25.0,29,30.18,10.0,North,12.7,20.7,N/A,,Clear,350,2013-03-06 22:53:00
5:53 PM,53.1,27.0,37,30.20,10.0,NNW,9.2,-,N/A,,Clear,340,2013-03-06 23:53:00
6:53 PM,51.1,28.9,43,30.22,10.0,North,8.1,-,N/A,,Clear,350,2013-03-07 00:53:00
7:53 PM,48.9,28.9,46,30.24,10.0,North,6.9,-,N/A,,Clear,350,2013-03-07 01:53:00
8:53 PM,48.0,30.0,50,30.25,10.0,North,6.9,-,N/A,,Clear,360,2013-03-07 02:53:00
9:53 PM,46.0,30.0,54,30.27,10.0,North,6.9,-,N/A,,Clear,350,2013-03-07 03:53:00
10:53 PM,44.1,30.0,58,30.27,10.0,North,6.9,-,N/A,,Clear,350,2013-03-07 04:53:00
11:53 PM,43.0,30.0,60,30.28,10.0,North,6.9,-,N/A,,Clear,360,2013-03-07 05:53:00